Shungnak AP, Shungnak, AK, AK

1:05 AM AKST on November 22, 2019 (GMT -0900)
Shungnak AP, Shungnak, AK

Weather History for PAGH - September, 2019

Change the Weather History Date:

Saturday, September 21, 2019

  Actual Average (WUND) Record (WUND)
Temperature  
Mean Temperature 36 °F -  
Max Temperature 46 °F - - (-1)
Min Temperature 25 °F - - (-1)
Degree Days  
Heating Degree Days 30    
Moisture  
Dew Point 28 °F    
Average Humidity 79    
Maximum Humidity 96    
Minimum Humidity 46    
Precipitation  
Precipitation 0.00 in - - ()
Sea Level Pressure  
Sea Level Pressure 29.52 in    
Wind  
Wind Speed 8 mph (West)    
Max Wind Speed 12 mph    
Max Gust Speed -    
Visibility 10 miles    
Events      
Averages and records for this station are not official NWS values.
T = Trace of Precipitation, MM = Missing Value Source: NWS Daily Summary

Daily Weather History Graph

Daily Weather History Graph

Search for Another Location

Airport or City:

Astronomy

Sep. 21, 2019 Rise Set
Actual Time 8:07 AM AKDT 8:34 PM AKDT
Civil Twilight 7:13 AM AKDT 9:27 PM AKDT
Nautical Twilight 6:06 AM AKDT 10:34 PM AKDT
Astronomical Twilight 4:43 AM AKDT 11:55 PM AKDT
Moon 9:35 PM AKDT (9/21) 7:09 PM AKDT (9/21)
Length of Visible Light 14h 13m
Length of Day
12h 26m
Waning Gibbous, 53% of the Moon is Illuminated
Sep 21
Waning Gibbous
Sep 21
Last Quarter
Sep 28
New
Oct 5
First Quarter
Oct 13
Full

Hourly Weather History & Observations

Time (AKDT) Temp. Windchill Dew Point Humidity Pressure Visibility Wind Dir Wind Speed Gust Speed Precip Events Conditions
12:56 AM 30.9 °F 22.8 °F 27.0 °F 85% 29.41 in 10.0 mi West 9.2 mph - N/A   Clear
1:56 AM 30.0 °F 21.7 °F 27.0 °F 88% 29.42 in 10.0 mi West 9.2 mph - N/A   Clear
2:56 AM 30.9 °F 23.5 °F 27.0 °F 85% 29.43 in 10.0 mi WSW 8.1 mph - N/A   Clear
3:56 AM 30.0 °F 21.7 °F 27.0 °F 88% 29.44 in 10.0 mi West 9.2 mph - N/A   Clear
4:56 AM 27.0 °F 19.5 °F 25.0 °F 92% 29.46 in 10.0 mi West 6.9 mph - N/A   Clear
5:56 AM 27.0 °F 19.5 °F 25.0 °F 92% 29.46 in 10.0 mi West 6.9 mph - N/A   Clear
6:56 AM 25.0 °F 19.3 °F 24.1 °F 96% 29.47 in 10.0 mi WNW 4.6 mph - N/A   Clear
7:56 AM 25.0 °F 17.1 °F 24.1 °F 96% 29.49 in 10.0 mi West 6.9 mph - N/A   Clear
8:56 AM 25.0 °F 18.1 °F 24.1 °F 96% 29.50 in 10.0 mi West 5.8 mph - N/A   Clear
9:56 AM 27.0 °F 20.5 °F 26.1 °F 96% 29.52 in 10.0 mi West 5.8 mph - N/A   Clear
10:56 AM 30.9 °F 25.2 °F 28.9 °F 92% 29.53 in 10.0 mi West 5.8 mph - N/A   Clear
11:56 AM 35.1 °F 30.1 °F 30.9 °F 85% 29.54 in 10.0 mi West 5.8 mph - N/A   Clear
12:56 PM 37.0 °F 29.8 °F 28.0 °F 70% 29.55 in 10.0 mi West 10.4 mph - N/A   Clear
1:56 PM 39.9 °F 33.9 °F 28.9 °F 65% 29.56 in 10.0 mi WNW 9.2 mph - N/A   Clear
2:56 PM 43.0 °F 36.8 °F 28.0 °F 56% 29.56 in 10.0 mi West 11.5 mph - N/A   Clear
3:56 PM 45.0 °F 40.6 °F 28.9 °F 53% 29.57 in 10.0 mi NNW 8.1 mph - N/A   Clear
4:56 PM 45.0 °F 39.3 °F 27.0 °F 49% 29.57 in 10.0 mi WNW 11.5 mph - N/A   Clear
5:56 PM 46.0 °F 43.1 °F 28.0 °F 50% 29.57 in 10.0 mi NW 5.8 mph - N/A   Clear
6:56 PM 46.0 °F 43.1 °F 26.1 °F 46% 29.57 in 10.0 mi WNW 5.8 mph - N/A   Clear
7:56 PM 41.0 °F 36.4 °F 27.0 °F 57% 29.57 in 10.0 mi WSW 6.9 mph - N/A   Clear
8:56 PM 37.9 °F 32.7 °F 32.0 °F 79% 29.58 in 10.0 mi West 6.9 mph - N/A   Clear
9:56 PM 35.1 °F 31.0 °F 32.0 °F 89% 29.59 in 10.0 mi WSW 4.6 mph - N/A   Clear
10:56 PM 34.0 °F 31.0 °F 30.9 °F 89% 29.60 in 10.0 mi NW 3.5 mph - N/A   Clear
11:56 PM 34.0 °F 31.0 °F 32.0 °F 92% 29.60 in 10.0 mi West 3.5 mph - N/A   Clear